Regional Weather Roundup
Issued by NWS

Home | Current Version | Previous Version | Text Only | Print | Product List | Glossary Off
Versions: 1 2 3 4 5 6 7 8 9 10 11 12 13 14 15 16 17 18 19 20 21 22 23 24 25 26 27 28 29 30 31 32 33 34 35 36 37 38 39 40 41 42 43 44 45 46 47 48 49 50

000
ASUS43 KLMK 211410
RWRKY
KENTUCKY REGIONAL WEATHER ROUNDUP
NATIONAL WEATHER SERVICE LOUISVILLE KY
900 AM EST SUN DEC 21 2014

NOTE "FAIR" INDICATES FEW OR NO CLOUDS BELOW 12,000 FEET
WITH NO SIGNIFICANT WEATHER AND/OR OBSTRUCTIONS TO VISIBILITY.

KYZ001>023-026-027-061>063-070>075-211500-
WESTERN AND SOUTH CENTRAL KENTUCKY

CITY           SKY/WX    TMP DP  RH WIND       PRES   REMARKS
PADUCAH        CLEAR     26  24  92 CALM      30.25R FOG
HENDERSON      CLEAR     27  25  93 E3        30.27F
OWENSBORO      CLEAR     27  25  92 E3        30.28F FOG
HOPKINSVILLE   CLEAR     29  25  85 E6        30.24F WCI  23
BOWLING GREEN  CLEAR     27  23  85 NE5       30.27F FOG     WCI  22
GLASGOW        SUNNY     28  27  99 CALM      30.26F FOG
$$

KYZ024-025-028>034-038-045-046-053-211500-
NORTH CENTRAL KENTUCKY

CITY           SKY/WX    TMP DP  RH WIND       PRES   REMARKS
LOUISVILLE/SDF PTCLDY    29  25  85 CALM      30.31S FOG
LOUISVILLE/LOU CLEAR     25  22  88 CALM      30.31S FOG
FORT KNOX      CLEAR     26  24  91 NE3       30.27S
$$

KYZ035>037-039>044-047>052-055>060-089>105-211500-
NORTHEAST KENTUCKY

CITY           SKY/WX    TMP DP  RH WIND       PRES   REMARKS
LEXINGTON      SUNNY     27  25  92 E7        30.29S FOG     WCI  19
COVINGTON      MOCLDY    27  21  78 SE3       30.30R HAZE
FRANKFORT      SUNNY     23  20  88 CALM      30.29S FOG
$$

KYZ054-064>069-076>088-106>120-211500-
SOUTHEAST KENTUCKY

CITY           SKY/WX    TMP DP  RH WIND       PRES   REMARKS
JACKSON        SUNNY     27  24  89 E5        30.27S WCI  22
LONDON         SUNNY     27  32 100 CALM      30.27S HAZE
SOMERSET       SUNNY     25  25 100 CALM      30.30S FOG
MIDDLESBORO    FOG       25  24  99 CALM      30.28S VSB<1/4
MONTICELLO     SUNNY     24  23  96 CALM      30.30S FOG
$$



USA.gov is the U.S. government's official web portal to all federal, state and local government web resources and services.